Location: Hilton Head Island
(32.2163°N, 80.7526°W)
Time: 20:33:33
(UTC-04:00)

Vanguard 1 - Pass Details

Date: 24 February 2026
Orbit: 653 x 3818 km, 34.2° (Epoch: 9 March)

Event Time Altitude Azimuth Distance (km) Brightness Sun altitude
Rises 16:33:31 0° 277° (W) 4,481 14.4 19.9°
Reaches altitude 10° 16:35:55 10° 278° (W) 3,793 14.2 19.5°
Maximum altitude 16:46:34 84° 7° (N) 2,405 12.3 17.4°
Drops below altitude 10° 17:06:29 10° 97° (E) 6,559 13.8 13.5°
Sets 17:12:13 0° 98° (E) 7,815 14.1 12.4°
